KI5QWQ Weather Reports


Display with metric or nautical units.
time (UTC)temp
F
wind
direction
speed
MPH
gust
MPH
rain 1hr
in
rain 24hr
in
rain mn
in
humidity
%
barometer
mb
20260509235708 0 190 0.0 3.0 0.00 0.12 0.12
20260509235204 0 173 0.0 3.0 0.00 0.12 0.12
20260509234701 0 169 1.0 4.0 0.00 0.12 0.12
20260509234158 0 150 2.0 4.0 0.00 0.12 0.12 1010.6
20260509233656 0 154 0.0 4.0 0.00 0.12 0.12 1010.6
20260509233153 0 122 2.0 3.0 0.00 0.12 0.12 1010.6
20260509232649 0 95 1.0 3.0 0.00 0.12 0.12 1010.6
20260509232146 0 195 0.0 2.0 0.00 0.12 0.12 1010.6
20260509231643 0 351 0.0 3.0 0.00 0.12 0.12 1010.6
20260509231140 0 189 0.0 2.0 0.00 0.12 0.12 1010.6
20260509230637 0 117 0.0 2.0 0.00 0.12 0.12 1010.6
20260509230134 0 145 1.0 2.0 0.00 0.12 0.12 1010.6
20260509225630 0 229 0.0 2.0 0.00 0.12 0.12 1010.6
20260509225125 0 89 0.0 1.0 0.00 0.12 0.12 1010.6
20260509224620 0 230 0.0 1.0 0.00 0.12 0.12 1010.6
20260509224118 0 89 1.0 2.0 0.00 0.12 0.12 1010.7
20260509223615 0 246 0.0 1.0 0.00 0.12 0.12 1010.7
20260509223113 0 13 0.0 1.0 0.00 0.12 0.12 1010.7
20260509222608 0 300 1.0 2.0 0.00 0.12 0.12 1010.7
20260509222104 0 123 1.0 3.0 0.00 0.12 0.12 1010.7
20260509221600 0 219 0.0 3.0 0.00 0.12 0.12 1010.7
20260509221056 0 269 0.0 2.0 0.00 0.12 0.12 1010.7
20260509220552 0 218 0.0 1.0 0.00 0.12 0.12 1010.7
20260509220049 0 263 0.0 1.0 0.00 0.12 0.12 1010.7
20260509215544 0 200 1.0 2.0 0.00 0.12 0.12 1010.7
20260509215042 0 293 0.0 2.0 0.00 0.12 0.12 1010.8
20260509214539 0 278 1.0 2.0 0.00 0.12 0.12 1010.8
20260509214036 0 244 1.0 2.0 0.00 0.12 0.12 1010.7
20260509213532 0 311 1.0 2.0 0.00 0.12 0.12 1010.9
20260509213029 0 297 1.0 3.0 0.00 0.12 0.12 1011.1
20260509212526 0 18 2.0 2.0 0.00 0.12 0.12 1011.9
20260509212023 0 113 2.0 3.0 0.00 0.12 0.12 1011.9
20260509211518 0 153 2.0 5.0 0.00 0.12 0.12 1011.9
20260509211016 0 158 1.0 2.0 0.00 0.12 0.12 1011.9
20260509210512 0 185 2.0 4.0 0.00 0.12 0.12 1011.9
20260509210009 0 240 0.0 3.0 0.00 0.12 0.12 1011.9
20260509205502 0 242 0.0 2.0 0.00 0.12 0.12 1011.9
20260509204958 0 193 2.0 3.0 0.00 0.12 0.12 1011.9
20260509204454 0 356 5.0 8.0 0.00 0.12 0.12 1011.9
20260509203951 0 3 1.0 3.0 0.00 0.12 0.12 1011.8
20260509203447 0 55 0.0 2.0 0.00 0.12 0.12 1011.9
20260509202945 0 255 0.0 2.0 0.00 0.12 0.12 1011.9
20260509202441 0 327 2.0 3.0 0.00 0.12 0.12 1012.0
20260509201936 0 269 0.0 2.0 0.00 0.12 0.12 1012.0
20260509201431 0 128 0.0 2.0 0.00 0.12 0.12 1012.3
20260509200929 0 254 1.0 2.0 0.00 0.12 0.12 1012.4
20260509200428 0 117 1.0 2.0 0.00 0.12 0.12 1012.5
20260509195925 0 354 2.0 3.0 0.00 0.12 0.12 1012.7
20260509195421 0 357 1.0 3.0 0.00 0.12 0.12 1012.5
20260509194920 0 358 1.0 2.0 0.00 0.12 0.12 1012.5
20260509194417 0 269 0.0 3.0 0.00 0.12 0.12 1012.6
20260509193914 0 25 2.0 4.0 0.00 0.12 0.12 1012.6
20260509193413 0 335 0.0 2.0 0.00 0.12 0.12 1012.4
20260509192910 0 67 0.0 5.0 0.00 0.12 0.12 1012.6
20260509192406 0 244 1.0 3.0 0.00 0.12 0.12 1012.6
20260509191901 0 337 3.0 4.0 0.00 0.12 0.12 1012.8
20260509191357 0 258 0.0 4.0 0.00 0.12 0.12 1012.7
20260509190853 0 283 0.0 4.0 0.00 0.12 0.12 1012.8
20260509190350 0 303 1.0 5.0 0.00 0.12 0.12 1012.8
20260509185848 0 0 2.0 3.0 0.00 0.12 0.12 1012.9
20260509185344 0 279 2.0 4.0 0.00 0.12 0.12 1013.0
20260509184842 0 105 1.0 2.0 0.00 0.12 0.12 1013.3
20260509184339 0 142 0.0 3.0 0.00 0.12 0.12 1013.2
20260509183835 0 129 0.0 3.0 0.00 0.12 0.12 1013.3
20260509183330 0 268 1.0 2.0 0.00 0.12 0.12 1013.7
20260509182827 0 299 0.0 2.0 0.00 0.12 0.12 1013.5
20260509182324 0 33 0.0 2.0 0.00 0.12 0.12 1013.7
20260509181821 0 329 0.0 1.0 0.00 0.12 0.12 1013.7
20260509181318 0 284 0.0 1.0 0.00 0.12 0.12 1014.0
20260509180815 0 255 0.0 1.0 0.00 0.12 0.12 1014.1
20260509180312 0 258 1.0 3.0 0.00 0.12 0.12 1014.0
20260509175808 0 212 0.0 1.0 0.00 0.12 0.12 1014.1
20260509175307 0 230 0.0 1.0 0.71 0.12 0.12 1014.1
20260509174801 0 325 0.0 3.0 0.71 0.12 0.12 1014.0
20260509174256 0 195 0.0 1.0 0.00 0.00 0.00 1013.9
20260509173752 0 310 0.0 3.0 0.00 0.00 0.00 1014.1
20260509173248 0 242 0.0 1.0 0.00 0.00 0.00 1014.0
20260509172744 0 117 0.0 1.0 0.00 0.00 0.00 1014.1
20260509172241 0 117 0.0 1.0 0.00 0.00 0.00 1014.1
20260509171736 0 235 0.0 1.0 0.00 0.00 0.00 1014.3
20260509171233 0 235 0.0 1.0 0.00 0.00 0.00 1014.5
20260509170730 0 235 0.0 1.0 0.00 0.00 0.00 1014.5
20260509170226 0 326 0.0 1.0 0.00 0.00 0.00 1014.5
20260509165724 0 225 0.0 1.0 0.00 0.00 0.00 1014.3
20260509165220 0 205 0.0 1.0 0.00 0.00 0.00 1014.3
20260509164716 0 252 1.0 2.0 0.00 0.00 0.00
20260509164212 0 212 0.0 4.0 0.00 0.00 0.00
20260509163709 0 205 1.0 5.0 0.00 0.00 0.00
20260509163206 0 220 2.0 4.0 0.00 0.00 0.00
20260509162703 0 247 2.0 3.0 0.00 0.00 0.00
20260509162159 0 173 2.0 6.0 0.00 0.00 0.00
20260509161654 0 217 0.0 6.0 0.00 0.00 0.00
20260509161150 0 226 2.0 7.0 0.00 0.00 0.00
20260509160646 0 251 2.0 4.0 0.00 0.00 0.00
20260509160142 0 235 2.0 4.0 0.00 0.00 0.00
20260509155638 0 301 0.0 2.0 0.00 0.00 0.00
20260509155134 0 206 2.0 3.0 0.00 0.00 0.00
20260509154630 0 225 1.0 3.0 0.00 0.00 0.00
20260509154127 0 293 0.0 2.0 0.00 0.00 0.00 1013.0
20260509153625 0 92 1.0 3.0 0.00 0.00 0.00 1013.0
20260509153121 0 217 0.0 1.0 0.00 0.00 0.00 1013.0
20260509152617 0 217 0.0 3.0 0.00 0.00 0.00 1013.0
20260509152115 0 204 0.0 3.0 0.00 0.00 0.00 1013.0
20260509151611 0 205 0.0 3.0 0.00 0.00 0.00 1013.0
20260509151109 0 214 0.0 3.0 0.00 0.00 0.00 1013.0
20260509150606 0 216 2.0 5.0 0.00 0.00 0.00 1013.0
20260509150104 0 200 1.0 3.0 0.00 0.00 0.00 1013.0
20260509145559 0 227 1.0 3.0 0.00 0.00 0.00 1013.0
20260509145055 0 233 2.0 3.0 0.00 0.00 0.00 1013.0
20260509144552 0 240 3.0 4.0 0.00 0.00 0.00 1013.0
20260509144049 0 223 3.0 4.0 0.00 0.00 0.00 1013.2
20260509143546 0 249 1.0 3.0 0.00 0.00 0.00 1013.1
20260509143038 0 215 2.0 4.0 0.00 0.00 0.00 1013.1
20260509142533 0 226 0.0 4.0 0.00 0.00 0.00 1013.0
20260509142029 0 234 1.0 5.0 0.00 0.00 0.00 1013.0
20260509141526 0 267 3.0 4.0 0.00 0.00 0.00 1013.0
20260509141023 0 248 2.0 3.0 0.00 0.00 0.00 1012.8
20260509140519 0 220 1.0 3.0 0.00 0.00 0.00 1012.8
20260509140018 0 222 2.0 2.0 0.00 0.00 0.00 1013.1
20260509135514 0 234 1.0 3.0 0.00 0.00 0.00 1013.1
20260509135012 0 214 0.0 4.0 0.00 0.00 0.00 1013.1
20260509134509 0 195 0.0 4.0 0.00 0.00 0.00 1013.1
20260509134007 0 326 1.0 3.0 0.00 0.00 0.00 1013.1
20260509133503 0 218 2.0 3.0 0.00 0.00 0.00 1012.7
20260509133001 0 155 4.0 4.0 0.00 0.00 0.00 1013.1
20260509132459 0 199 2.0 4.0 0.00 0.00 0.00 1013.1
20260509131956 0 218 0.0 3.0 0.00 0.00 0.00 1013.1
20260509131453 0 283 2.0 3.0 0.00 0.00 0.00 1012.9
20260509130949 0 136 0.0 4.0 0.00 0.00 0.00 1012.9
20260509130445 0 205 0.0 3.0 0.00 0.00 0.00 1012.9
20260509125942 0 180 0.0 2.0 0.00 0.00 0.00 1012.9
20260509125439 0 196 0.0 2.0 0.00 0.00 0.00 1012.9
20260509124935 0 196 1.0 3.0 0.00 0.00 0.00 1012.9
20260509124432 0 202 0.0 2.0 0.00 0.00 0.00 1013.2
20260509123929 0 246 0.0 1.0 0.00 0.00 0.00 1013.2
20260509123427 0 228 1.0 3.0 0.00 0.00 0.00 1013.1
20260509122922 0 165 0.0 2.0 0.00 0.00 0.00 1013.5
20260509122419 0 225 0.0 2.0 0.00 0.00 0.00 1013.6
20260509121916 0 229 0.0 1.0 0.00 0.00 0.00
20260509121413 0 177 1.0 1.0 0.00 0.00 0.00
20260509120911 0 333 0.0 2.0 0.00 0.00 0.00
20260509120409 0 199 0.0 2.0 0.00 0.00 0.00
20260509115907 0 185 1.0 2.0 0.00 0.00 0.00
20260509115404 0 200 0.0 1.0 0.00 0.00 0.00
20260509114901 0 150 0.0 2.0 0.00 0.00 0.00
20260509114400 0 154 0.0 2.0 0.00 0.00 0.00
20260509113859 0 31 0.0 0.0 0.00 0.00 0.00
20260509113355 0 230 0.0 1.0 0.00 0.00 0.00
20260509112852 0 154 0.0 0.0 0.00 0.00 0.00
20260509112349 0 117 0.0 1.0 0.00 0.00 0.00
20260509111846 0 62 0.0 1.0 0.00 0.00 0.00
20260509111343 0 230 0.0 2.0 0.00 0.00 0.00
20260509110842 0 213 2.0 2.0 0.00 0.00 0.00
20260509110337 0 149 0.0 2.0 0.00 0.00 0.00
20260509105836 0 186 0.0 2.0 0.00 0.00 0.00
20260509105333 0 205 0.0 1.0 0.00 0.00 0.00
20260509104829 0 295 0.0 1.0 0.00 0.00 0.00
20260509104326 0 326 0.0 1.0 0.00 0.00 0.00
20260509103824 0 139 1.0 2.0 0.00 0.00 0.00
20260509103321 0 290 0.0 1.0 0.00 0.00 0.00
20260509102820 0 55 0.0 2.0 0.00 0.00 0.00
20260509102317 0 116 0.0 1.0 0.00 0.00 0.00
20260509101812 0 315 0.0 1.0 0.00 0.00 0.00
20260509101309 0 46 0.0 1.0 0.00 0.00 0.00
20260509100807 0 243 0.0 2.0 0.00 0.00 0.00
20260509100304 0 135 0.0 1.0 0.00 0.00 0.00
20260509095800 0 176 1.0 2.0 0.00 0.00 0.00
20260509095257 0 120 0.0 2.0 0.00 0.00 0.00
20260509094754 0 283 0.0 1.0 0.00 0.00 0.00
20260509094251 0 218 0.0 1.0 0.00 0.00 0.00
20260509093749 0 214 0.0 2.0 0.00 0.00 0.00
20260509093246 0 25 0.0 2.0 0.00 0.00 0.00
20260509092744 0 341 0.0 1.0 0.00 0.00 0.00
20260509092242 0 215 0.0 2.0 0.00 0.00 0.00
20260509091740 0 122 0.0 1.0 0.00 0.00 0.00
20260509091236 0 242 0.0 2.0 0.00 0.00 0.00
20260509090734 0 157 0.0 1.0 0.00 0.00 0.00
20260509090231 0 224 0.0 1.0 0.00 0.00 0.00
20260509085728 0 205 0.0 1.0 0.00 0.00 0.00
20260509085225 0 141 1.0 2.0 0.00 0.00 0.00
20260509084722 0 140 0.0 2.0 0.00 0.00 0.00
20260509084218 0 125 0.0 2.0 0.00 0.00 0.00
20260509083717 0 182 1.0 2.0 0.00 0.00 0.00
20260509083213 0 202 0.0 2.0 0.00 0.00 0.00
20260509082710 0 117 0.0 1.0 0.00 0.00 0.00
20260509082206 0 124 0.0 0.0 0.00 0.00 0.00
20260509081703 0 307 0.0 2.0 0.00 0.00 0.00
20260509081201 0 154 0.0 2.0 0.00 0.00 0.00
20260509080659 0 192 1.0 3.0 0.00 0.00 0.00
20260509080156 0 153 0.0 3.0 0.00 0.00 0.00
20260509075654 0 154 0.0 3.0 0.00 0.00 0.00
20260509075151 0 172 0.0 2.0 0.00 0.00 0.00
20260509074648 0 75 0.0 1.0 0.00 0.00 0.00
20260509074145 0 142 0.0 1.0 0.00 0.00 0.00
20260509073642 0 217 0.0 1.0 0.00 0.00 0.00
20260509073138 0 98 0.0 2.0 0.00 0.00 0.00
20260509072635 0 117 0.0 2.0 0.00 0.00 0.00
20260509072132 0 133 0.0 2.0 0.00 0.00 0.00
20260509071628 0 154 0.0 3.0 0.00 0.00 0.00
20260509071125 0 170 2.0 5.0 0.00 0.00 0.00
20260509070623 0 201 0.0 6.0 0.00 0.00 0.00
20260509070119 0 195 0.0 2.0 0.00 0.00 0.00
20260509065614 0 224 0.0 2.0 0.00 0.00 0.00 1014.0
20260509065111 0 240 0.0 2.0 0.00 0.00 0.00 1014.0
20260509064608 0 154 0.0 2.0 0.00 0.00 0.00 1014.0
20260509064106 0 211 1.0 3.0 0.00 0.00 0.00 1014.0
20260509063603 0 172 0.0 2.0 0.00 0.00 0.00 1014.0
20260509063059 0 216 0.0 2.0 0.00 0.00 0.00 1014.0
20260509062556 0 195 0.0 2.0 0.00 0.00 0.00 1014.0
20260509062054 0 152 2.0 3.0 0.00 0.00 0.00 1014.0
20260509061550 0 184 1.0 2.0 0.00 0.00 0.00 1014.0
20260509061048 0 158 0.0 6.0 0.00 0.00 0.00 1014.0
20260509060545 0 160 2.0 2.0 0.00 0.00 0.00 1014.0
20260509060041 0 206 0.0 7.0 0.00 0.00 0.00 1014.0
20260509055536 0 216 0.0 5.0 0.00 0.00 0.00 1014.1
20260509055033 0 203 0.0 4.0 0.00 0.00 0.00
20260509054529 0 154 1.0 2.0 0.00 0.00 0.00
20260509054027 0 145 0.0 2.0 0.00 0.00 0.00
20260509053526 0 155 0.0 2.0 0.00 0.00 0.00
20260509053022 0 156 0.0 2.0 0.00 0.00 0.00
20260509052520 0 176 0.0 2.0 0.00 0.00 0.00
20260509052018 0 168 1.0 3.0 0.00 0.00 0.00
20260509051516 0 117 0.0 3.0 0.00 0.00 0.00
20260509051012 0 129 0.0 1.0 0.00 0.00 0.00
20260509050509 0 146 1.0 2.0 0.00 0.00 0.00
20260509050006 0 143 1.0 1.0 0.00 0.00 0.00
20260509045503 0 142 0.0 3.0 0.00 0.00 0.00
20260509045000 0 142 0.0 2.0 0.00 0.00 0.00
20260509044458 0 205 0.0 2.0 0.00 0.00 0.00
20260509043955 0 158 1.0 2.0 0.00 0.00 0.00
20260509043450 0 126 0.0 1.0 0.00 0.00 0.00
20260509042946 0 103 0.0 1.0 0.00 0.00 0.00
20260509042443 0 297 0.0 0.0 0.00 0.00 0.00
20260509041939 0 117 0.0 1.0 0.00 0.00 0.00
20260509041436 0 117 0.0 0.0 0.00 0.00 0.00
20260509040934 0 62 0.0 0.0 0.00 0.00 0.00
20260509040432 0 62 0.0 0.0 0.00 0.00 0.00
20260509035928 0 129 0.0 0.0 0.00 0.00 0.00
20260509035425 0 127 0.0 1.0 0.00 0.00 0.00 1012.4
20260509034922 0 205 0.0 0.0 0.00 0.00 0.00 1012.4
20260509034420 0 205 0.0 0.0 0.00 0.00 0.00 1012.4
20260509033917 0 142 0.0 0.0 0.00 0.00 0.00 1012.4
20260509033414 0 193 0.0 1.0 0.00 0.00 0.00 1012.4
20260509032910 0 117 0.0 0.0 0.00 0.00 0.00 1012.4
20260509032408 0 117 0.0 0.0 0.00 0.00 0.00 1012.4
20260509031906 0 129 0.0 0.0 0.00 0.00 0.00 1012.4
20260509031403 0 129 0.0 1.0 0.00 0.00 0.00 1012.4
20260509030900 0 217 0.0 1.0 0.00 0.00 0.00 1012.4
20260509030358 0 177 0.0 2.0 0.00 0.00 0.00 1012.4
20260509025855 0 164 0.0 2.0 0.00 0.00 0.00 1012.4
20260509025350 0 160 0.0 1.0 0.00 0.00 0.00
20260509024845 0 178 0.0 2.0 0.00 0.00 0.00
20260509024342 0 187 1.0 2.0 0.00 0.00 0.00
20260509023839 0 174 0.0 2.0 0.00 0.00 0.00
20260509023336 0 142 0.0 1.0 0.00 0.00 0.00
20260509022827 0 154 0.0 0.0 0.00 0.00 0.00
20260509022325 0 117 0.0 1.0 0.00 0.00 0.00
20260509021821 0 135 0.0 1.0 0.00 0.00 0.00
20260509021318 0 129 0.0 2.0 0.00 0.00 0.00
20260509020816 0 166 0.0 1.0 0.00 0.00 0.00
20260509020314 0 205 0.0 1.0 0.00 0.00 0.00 1011.8
20260509015811 0 159 1.0 2.0 0.00 0.00 0.00 1011.8
20260509015309 0 155 3.0 3.0 0.00 0.00 0.00 1011.8
20260509014805 0 180 0.0 3.0 0.00 0.00 0.00 1011.8
20260509014303 0 158 3.0 3.0 0.00 0.00 0.00 1011.8
20260509013759 0 141 0.0 2.0 0.00 0.00 0.00 1011.8
20260509013255 0 172 1.0 3.0 0.00 0.00 0.00 1011.8
20260509012751 0 180 0.0 3.0 0.00 0.00 0.00 1011.8
20260509012248 0 142 0.0 1.0 0.00 0.00 0.00 1011.8
20260509011746 0 135 2.0 2.0 0.00 0.00 0.00 1011.8
20260509011243 0 183 0.0 3.0 0.00 0.00 0.00 1011.8
20260509010740 0 133 1.0 3.0 0.00 0.00 0.00 1011.8
20260509010237 0 126 1.0 3.0 0.00 0.00 0.00 1011.5
20260509005734 0 154 0.0 2.0 0.00 0.00 0.00 1011.5
20260509005231 0 94 0.0 2.0 0.00 0.00 0.00 1011.5
20260509004725 0 158 1.0 3.0 0.00 0.00 0.00 1011.5
20260509004224 0 82 0.0 3.0 0.00 0.00 0.00 1011.5
20260509003722 0 76 0.0 2.0 0.00 0.00 0.00 1011.5
20260509003219 0 49 0.0 2.0 0.00 0.00 0.00 1011.5
20260509002716 0 161 0.0 4.0 0.00 0.00 0.00 1011.5
20260509002214 0 166 0.0 2.0 0.00 0.00 0.00 1011.8
20260509001711 0 150 0.0 3.0 0.00 0.00 0.00 1011.8
20260509001207 0 168 0.0 3.0 0.00 0.00 0.00 1011.8
20260509000705 0 154 1.0 2.0 0.00 0.00 0.00 1011.8
20260509000204 0 22 0.0 3.0 0.00 0.00 0.00 1011.8